Location: Gu�tanj
(46.5431°N, 14.9692°E)
Time: 07:21:05
(UTC+00:00)

Cosmos 2341 Rocket - Pass Details

Date: 03 March 2021
Orbit: 968 x 1004 km, 82.9° (Epoch: 18 April)

Event Time Altitude Azimuth Distance (km) Brightness Sun altitude
Rises 18:28:52 0° 186° (S) 3,698 7.0 -17.9°
Reaches altitude 10° 18:31:23 10° 186° (S) 2,749 6.3 -18.3°
Maximum altitude 18:37:43 90° 97° (E) 993 4.0 -19.4°
Drops below altitude 10° 18:44:01 10° 9° (N) 2,742 6.4 -20.5°
Sets 18:46:32 0° 9° (N) 3,689 7.1 -20.9°
